• en France
  • Liste des pays
  • À 7 jours
  • Température de l'eau
  • Carte satellitaire
  • Carte météo
  • Widgets météo
  • user-avatar
    Se connecter

    Météo par heure à Dosso

    Ce jour, 24 Septembre, Lundi

    Heure Température Précipitation Vent Pression Humidité
    00:00 +31°C° 0 mm 3 m/s 738 mmHg 53%
    01:00 +31°C° 0 mm 3 m/s 738 mmHg 55%
    02:00 +30°C° 0 mm 3 m/s 738 mmHg 57%
    03:00 +30°C° 0 mm 3 m/s 737 mmHg 58%
    04:00 +30°C° 0 mm 3 m/s 737 mmHg 60%
    05:00 +29°C° 0 mm 3 m/s 738 mmHg 62%
    06:00 +29°C° 0 mm 3 m/s 738 mmHg 64%
    07:00 +31°C° 0 mm 3 m/s 738 mmHg 58%
    08:00 +34°C° 0 mm 3 m/s 739 mmHg 53%
    09:00 +35°C° 0 mm 3 m/s 739 mmHg 47%
    10:00 +37°C° 0 mm 2 m/s 739 mmHg 42%
    11:00 +39°C° 0 mm 1 m/s 738 mmHg 36%
    12:00 +38°C° 0 mm 0 m/s 738 mmHg 31%
    13:00 +41°C° 0 mm 1 m/s 737 mmHg 28%
    14:00 +42°C° 0 mm 1 m/s 736 mmHg 25%
    15:00 +42°C° 0 mm 2 m/s 736 mmHg 23%
    16:00 +41°C° 0 mm 2 m/s 736 mmHg 24%
    17:00 +40°C° 0 mm 2 m/s 736 mmHg 25%
    18:00 +39°C° 0 mm 2 m/s 736 mmHg 27%
    19:00 +39°C° 0 mm 2 m/s 736 mmHg 29%
    20:00 +38°C° 0 mm 3 m/s 736 mmHg 31%
    21:00 +37°C° 0 mm 3 m/s 737 mmHg 33%
    22:00 +36°C° 0 mm 3 m/s 737 mmHg 37%
    23:00 +35°C° 0 mm 4 m/s 737 mmHg 40%

    Demain, 25 Septembre, Mardi

    Heure Température Précipitation Vent Pression Humidité
    00:00 +34°C° 0 mm 4 m/s 737 mmHg 44%
    01:00 +34°C° 0 mm 4 m/s 737 mmHg 48%
    02:00 +33°C° 0 mm 4 m/s 736 mmHg 52%
    03:00 +32°C° 0 mm 5 m/s 736 mmHg 55%
    04:00 +32°C° 0 mm 4 m/s 736 mmHg 58%
    05:00 +32°C° 0 mm 4 m/s 737 mmHg 60%
    06:00 +30°C° 0 mm 3 m/s 737 mmHg 62%
    07:00 +33°C° 0 mm 4 m/s 738 mmHg 58%
    08:00 +34°C° 0 mm 4 m/s 738 mmHg 54%
    09:00 +36°C° 0 mm 4 m/s 739 mmHg 50%
    10:00 +37°C° 0 mm 4 m/s 738 mmHg 45%
    11:00 +39°C° 0 mm 3 m/s 738 mmHg 40%
    12:00 +40°C° 0 mm 2 m/s 737 mmHg 35%
    13:00 +41°C° 0 mm 2 m/s 737 mmHg 31%
    14:00 +42°C° 0 mm 2 m/s 736 mmHg 27%
    15:00 +42°C° 0 mm 2 m/s 735 mmHg 23%
    16:00 +41°C° 0 mm 2 m/s 735 mmHg 24%
    17:00 +40°C° 0 mm 2 m/s 735 mmHg 26%
    18:00 +39°C° 0 mm 3 m/s 735 mmHg 27%
    19:00 +38°C° 0 mm 3 m/s 736 mmHg 31%
    20:00 +37°C° 0 mm 4 m/s 736 mmHg 35%
    21:00 +36°C° 0 mm 4 m/s 737 mmHg 38%
    22:00 +35°C° 0 mm 5 m/s 737 mmHg 45%
    23:00 +34°C° 0 mm 6 m/s 737 mmHg 52%

    Après-demain, 26 Septembre, Mercredi

    Heure Température Précipitation Vent Pression Humidité
    00:00 +33°C° 0 mm 7 m/s 737 mmHg 58%
    01:00 +33°C° 0 mm 6 m/s 737 mmHg 62%
    02:00 +32°C° 0 mm 5 m/s 737 mmHg 65%
    03:00 +30°C° 0 mm 4 m/s 736 mmHg 69%
    04:00 +30°C° 0 mm 4 m/s 737 mmHg 70%
    05:00 +29°C° 0 mm 4 m/s 737 mmHg 71%
    06:00 +29°C° 0 mm 4 m/s 737 mmHg 72%
    07:00 +32°C° 0 mm 4 m/s 738 mmHg 65%
    08:00 +34°C° 0 mm 5 m/s 739 mmHg 58%
    09:00 +36°C° 0 mm 5 m/s 739 mmHg 50%
    10:00 +37°C° 0 mm 5 m/s 739 mmHg 46%
    11:00 +38°C° 0 mm 4 m/s 738 mmHg 41%
    12:00 +40°C° 0 mm 3 m/s 738 mmHg 37%
    13:00 +40°C° 0 mm 2 m/s 737 mmHg 34%
    14:00 +41°C° 0 mm 1 m/s 736 mmHg 31%
    15:00 +39°C° 0 mm 0 m/s 735 mmHg 28%
    16:00 +41°C° 0 mm 1 m/s 736 mmHg 29%
    17:00 +40°C° 0 mm 1 m/s 736 mmHg 31%
    18:00 +39°C° 0 mm 2 m/s 736 mmHg 32%
    19:00 +38°C° 0 mm 3 m/s 736 mmHg 35%
    20:00 +37°C° 0 mm 3 m/s 736 mmHg 38%
    21:00 +36°C° 0 mm 4 m/s 737 mmHg 42%
    22:00 +35°C° 0 mm 4 m/s 737 mmHg 46%
    23:00 +35°C° 0 mm 4 m/s 737 mmHg 50%

    27 Septembre, Jeudi

    Heure Température Précipitation Vent Pression Humidité
    00:00 +34°C° 0 mm 5 m/s 737 mmHg 54%
    01:00 +33°C° 0.2 mm 5 m/s 737 mmHg 58%
    02:00 +32°C° 0.2 mm 5 m/s 737 mmHg 63%
    03:00 +30°C° 0.2 mm 5 m/s 736 mmHg 67%
    04:00 +30°C° 0 mm 5 m/s 736 mmHg 69%
    05:00 +29°C° 0 mm 5 m/s 737 mmHg 71%
    06:00 +29°C° 0 mm 4 m/s 737 mmHg 73%
    07:00 +32°C° 0 mm 5 m/s 738 mmHg 66%
    08:00 +33°C° 0 mm 5 m/s 738 mmHg 59%
    09:00 +35°C° 0 mm 5 m/s 739 mmHg 52%
    10:00 +36°C° 0 mm 5 m/s 738 mmHg 47%
    11:00 +39°C° 0 mm 5 m/s 738 mmHg 42%
    12:00 +40°C° 0 mm 4 m/s 737 mmHg 37%
    13:00 +41°C° 0 mm 4 m/s 736 mmHg 35%
    14:00 +40°C° 0 mm 3 m/s 736 mmHg 33%
    15:00 +41°C° 0 mm 2 m/s 735 mmHg 31%
    16:00 +40°C° 0 mm 2 m/s 735 mmHg 32%
    17:00 +39°C° 0 mm 2 m/s 735 mmHg 34%
    18:00 +38°C° 0 mm 2 m/s 736 mmHg 35%
    19:00 +37°C° 0 mm 3 m/s 736 mmHg 39%
    20:00 +36°C° 0 mm 4 m/s 736 mmHg 42%
    21:00 +35°C° 0 mm 5 m/s 737 mmHg 45%
    22:00 +34°C° 0.5 mm 5 m/s 737 mmHg 51%
    23:00 +33°C° 0.5 mm 5 m/s 737 mmHg 56%

    28 Septembre, Vendredi

    Heure Température Précipitation Vent Pression Humidité
    00:00 +32°C° 0.5 mm 5 m/s 737 mmHg 61%
    01:00 +32°C° 1.2 mm 4 m/s 737 mmHg 65%
    02:00 +30°C° 1.2 mm 3 m/s 737 mmHg 69%
    03:00 +29°C° 1.2 mm 2 m/s 736 mmHg 73%
    04:00 +29°C° 0 mm 4 m/s 737 mmHg 73%
    05:00 +29°C° 0 mm 5 m/s 737 mmHg 73%
    06:00 +29°C° 0 mm 6 m/s 738 mmHg 73%
    07:00 +30°C° 0 mm 6 m/s 738 mmHg 69%
    08:00 +32°C° 0 mm 6 m/s 738 mmHg 64%
    09:00 +34°C° 0 mm 6 m/s 739 mmHg 59%
    10:00 +35°C° 0 mm 6 m/s 738 mmHg 53%
    11:00 +37°C° 0 mm 5 m/s 738 mmHg 47%
    12:00 +39°C° 0 mm 5 m/s 737 mmHg 41%
    13:00 +38°C° 0 mm 4 m/s 737 mmHg 40%
    14:00 +39°C° 0 mm 3 m/s 736 mmHg 38%
    15:00 +39°C° 0 mm 2 m/s 736 mmHg 36%
    16:00 +38°C° 0 mm 2 m/s 736 mmHg 38%
    17:00 +37°C° 0 mm 2 m/s 736 mmHg 40%
    18:00 +37°C° 0 mm 2 m/s 736 mmHg 41%
    19:00 +36°C° 0 mm 2 m/s 737 mmHg 43%
    20:00 +36°C° 0 mm 2 m/s 737 mmHg 44%
    21:00 +35°C° 0 mm 2 m/s 737 mmHg 46%
    22:00 +34°C° 0 mm 3 m/s 737 mmHg 49%
    23:00 +34°C° 0 mm 3 m/s 737 mmHg 53%

    29 Septembre, Samedi

    Heure Température Précipitation Vent Pression Humidité
    00:00 +33°C° 0 mm 4 m/s 737 mmHg 56%
    01:00 +32°C° 0.5 mm 4 m/s 737 mmHg 61%
    02:00 +30°C° 0.5 mm 3 m/s 737 mmHg 66%
    03:00 +29°C° 0.5 mm 3 m/s 737 mmHg 71%
    04:00 +29°C° 0.1 mm 3 m/s 738 mmHg 73%
    05:00 +29°C° 0.1 mm 3 m/s 738 mmHg 74%
    06:00 +29°C° 0.1 mm 3 m/s 738 mmHg 76%
    07:00 +30°C° 0.6 mm 3 m/s 739 mmHg 71%
    08:00 +31°C° 0.6 mm 3 m/s 739 mmHg 66%
    09:00 +33°C° 0.6 mm 3 m/s 740 mmHg 61%
    10:00 +34°C° 0.4 mm 4 m/s 739 mmHg 56%
    11:00 +35°C° 0.4 mm 4 m/s 738 mmHg 51%
    12:00 +36°C° 0.4 mm 4 m/s 738 mmHg 46%
    13:00 +37°C° 0 mm 4 m/s 737 mmHg 44%
    14:00 +37°C° 0 mm 3 m/s 737 mmHg 42%
    15:00 +37°C° 0 mm 3 m/s 736 mmHg 40%
    16:00 +37°C° 0 mm 3 m/s 737 mmHg 43%
    17:00 +36°C° 0 mm 3 m/s 737 mmHg 45%
    18:00 +35°C° 0 mm 3 m/s 737 mmHg 48%
    19:00 +34°C° 0.1 mm 3 m/s 737 mmHg 51%
    20:00 +33°C° 0.1 mm 4 m/s 738 mmHg 54%
    21:00 +32°C° 0.1 mm 4 m/s 738 mmHg 57%
    22:00 +31°C° 0 mm 3 m/s 738 mmHg 57%
    23:00 +31°C° 0 mm 3 m/s 737 mmHg 57%
    Voir plus